OBJECT A

基本信息
目录编号:
100237
目录名称:
OBJECT A
国际标识:
2026-178A
轨道中心:
EARTH
物体状态:
在轨
发射日期:
2026-08-05 UTC
国别:
中国 (CN)
轨道信息
数据来源: 国际轨道数据
星历时间: 2026-08-23T19:57:55+0800
半长轴: 7175.904km
偏心率: 0.0019902
轨道倾角: 98.550°
近地点辐角: 267.274°
升交点赤经: 309.543°
平近点角: 92.616°
近地点: 783.485km
远地点: 812.049km
周期: 100.826分钟
每日圈数: 14.281963
详细信息
发射场:
YSLA
轨道高度:
LEO
数据来源:
AOE Integration Group
参考系:
TEME
时间系统:
UTC
历元类型:
SGP4
2D轨道图
3D轨道图
轨道高度分析图
轨道倾角分析图
轨道综合分析图
查看轨道综合分析图